This is the latest recevied weather packets stored in our database for station/object K9RJT. If no packets are shown the sender has not sent any weather packets the latest 10 day(s).
| Time | Temp. | Humidity | Pressure | Rain* | Wind** | Luminosity | Snow |
|---|---|---|---|---|---|---|---|
| 1778047398 | 13.89° C | 57% | 1011.1 hPa | 0 mm | - | 0 W/m² | - |
| 1778047094 | 13.89° C | 56% | 1010.9 hPa | 0 mm | - | 0 W/m² | - |
| 1778046791 | 13.89° C | 55% | 1011 hPa | 0 mm | - | 0 W/m² | - |
| 1778046488 | 13.89° C | 54% | 1010.9 hPa | 0 mm | - | 0 W/m² | - |
| 1778046185 | 14.44° C | 54% | 1010.6 hPa | 0 mm | - | 0 W/m² | - |
| 1778045881 | 15.56° C | 52% | 1010.6 hPa | 0 mm | - | 0 W/m² | - |
| 1778045581 | 15° C | 53% | 1010.5 hPa | 0 mm | - | 0 W/m² | - |
| 1778045278 | 15° C | 53% | 1010.5 hPa | 0 mm | - | 0 W/m² | - |
| 1778044976 | 14.44° C | 52% | 1010.3 hPa | 0 mm | - | 0 W/m² | - |
| 1778044673 | 15° C | 52% | 1010.2 hPa | 0 mm | - | 0 W/m² | - |
| 1778044369 | 15° C | 51% | 1010.4 hPa | 0 mm | - | 0 W/m² | - |
| 1778044068 | 15.56° C | 50% | 1010.3 hPa | 0 mm | - | 0 W/m² | - |
| 1778043765 | 15° C | 50% | 1010.3 hPa | 0 mm | - | 0 W/m² | - |
| 1778043461 | 15.56° C | 51% | 1010.2 hPa | 0 mm | - | 0 W/m² | - |
| 1778043158 | 15.56° C | 51% | 1010 hPa | 0 mm | - | 0 W/m² | - |
| 1778042855 | 15.56° C | 50% | 1009.9 hPa | 0 mm | - | 0 W/m² | - |
| 1778042552 | 16.11° C | 49% | 1009.9 hPa | 0 mm | - | 0 W/m² | - |
| 1778042250 | 16.67° C | 48% | 1009.8 hPa | 0 mm | - | 0 W/m² | - |
| 1778041947 | 16.67° C | 48% | 1009.9 hPa | 0 mm | - | 0 W/m² | - |
| 1778041646 | 17.22° C | 49% | 1009.9 hPa | 0 mm | - | 0 W/m² | - |
| 1778041344 | 17.78° C | 48% | 1009.8 hPa | 0 mm | - | 0 W/m² | - |
| 1778041042 | 17.78° C | 47% | 1009.7 hPa | 0 mm | - | 0 W/m² | - |
| 1778040739 | 18.33° C | 45% | 1009.8 hPa | 0 mm | - | 0 W/m² | - |
| 1778040436 | 18.89° C | 43% | 1009.7 hPa | 0 mm | - | 0 W/m² | - |
| 1778040133 | 19.44° C | 42% | 1009.6 hPa | 0 mm | - | 0 W/m² | - |
* Rain latest hour (hover to see other rain measurements)
** Current wind speed in m/s (hover to see current wind gust speed)